Time,TemperatureF,DewpointF,PressureIn,WindDirection,WindDirectionDegrees,WindSpeedMPH,WindSpeedGustMPH,Humidity,HourlyPrecipIn,Conditions,Clouds,dailyrainin,SoftwareType,DateUTC
2013-03-27 00:00:00,55.3,41.6,30.21,North,0,3.4,3.4,60,0.00,,,0.00,WUHU216HW,2013-03-27 04:00:00,
2013-03-27 00:01:00,55.3,41.6,30.21,North,0,3.4,3.4,60,0.00,,,0.00,WUHU216HW,2013-03-27 04:01:00,
2013-03-27 00:02:00,55.3,41.6,30.21,North,0,3.4,3.4,60,0.00,,,0.00,WUHU216HW,2013-03-27 04:02:00,
2013-03-27 00:07:00,55.3,41.6,30.21,North,0,3.4,3.4,60,0.00,,,0.00,WUHU216HW,2013-03-27 04:07:00,
2013-03-27 00:29:00,55.1,41.9,30.20,NNW,338,2.9,2.9,61,0.00,,,0.00,WUHU216HW,2013-03-27 04:29:00,
2013-03-27 00:34:00,55.1,41.9,30.20,NNW,338,2.9,2.9,61,0.00,,,0.00,WUHU216HW,2013-03-27 04:34:00,
2013-03-27 00:59:00,54.4,41.2,30.20,NW,315,2.2,2.2,61,0.00,,,0.00,WUHU216HW,2013-03-27 04:59:00,
2013-03-27 01:04:00,54.4,41.2,30.20,NW,315,2.2,2.2,61,0.00,,,0.00,WUHU216HW,2013-03-27 05:04:00,
2013-03-27 01:29:00,54.2,41.4,30.20,NW,315,3.4,3.4,62,0.00,,,0.00,WUHU216HW,2013-03-27 05:29:00,
2013-03-27 01:34:00,54.2,41.4,30.20,NW,315,3.4,3.4,62,0.00,,,0.00,WUHU216HW,2013-03-27 05:34:00,
2013-03-27 02:07:00,52.6,40.3,30.19,North,0,4.0,4.0,63,0.00,,,0.00,WUHU216HW,2013-03-27 06:07:00,
2013-03-27 02:12:00,52.6,40.3,30.19,North,0,4.0,4.0,63,0.00,,,0.00,WUHU216HW,2013-03-27 06:12:00,
2013-03-27 02:30:00,51.7,39.9,30.19,NNE,23,1.8,1.8,64,0.00,,,0.00,WUHU216HW,2013-03-27 06:30:00,
2013-03-27 02:35:00,51.7,39.9,30.19,NNE,23,1.8,1.8,64,0.00,,,0.00,WUHU216HW,2013-03-27 06:35:00,
2013-03-27 02:59:00,50.6,39.3,30.18,NNW,338,3.6,3.6,65,0.00,,,0.00,WUHU216HW,2013-03-27 06:59:00,
2013-03-27 03:04:00,50.6,39.3,30.18,NNW,338,3.6,3.6,65,0.00,,,0.00,WUHU216HW,2013-03-27 07:04:00,
2013-03-27 03:29:00,50.9,39.5,30.17,NW,315,3.1,3.1,65,0.00,,,0.00,WUHU216HW,2013-03-27 07:29:00,
2013-03-27 03:34:00,50.9,39.5,30.17,NW,315,3.1,3.1,65,0.00,,,0.00,WUHU216HW,2013-03-27 07:34:00,
2013-03-27 03:59:00,51.8,40.4,30.17,WNW,293,2.5,2.5,65,0.00,,,0.00,WUHU216HW,2013-03-27 07:59:00,
2013-03-27 04:04:00,51.8,40.4,30.17,WNW,293,2.5,2.5,65,0.00,,,0.00,WUHU216HW,2013-03-27 08:04:00,
2013-03-27 04:29:00,51.8,40.4,30.17,NNW,338,1.3,1.3,65,0.00,,,0.00,WUHU216HW,2013-03-27 08:29:00,
2013-03-27 04:34:00,51.8,40.4,30.17,NNW,338,1.3,1.3,65,0.00,,,0.00,WUHU216HW,2013-03-27 08:34:00,
2013-03-27 04:59:00,51.5,40.1,30.17,North,0,0.7,0.7,65,0.00,,,0.00,WUHU216HW,2013-03-27 08:59:00,
2013-03-27 05:04:00,51.5,40.1,30.17,North,0,0.7,0.7,65,0.00,,,0.00,WUHU216HW,2013-03-27 09:04:00,
2013-03-27 05:29:00,51.1,39.3,30.18,North,0,2.2,2.2,64,0.00,,,0.00,WUHU216HW,2013-03-27 09:29:00,
2013-03-27 05:34:00,51.1,39.3,30.18,North,0,2.2,2.2,64,0.00,,,0.00,WUHU216HW,2013-03-27 09:34:00,
2013-03-27 05:59:00,50.0,38.4,30.18,NNW,338,1.8,1.8,64,0.00,,,0.00,WUHU216HW,2013-03-27 09:59:00,
2013-03-27 06:04:00,50.0,38.4,30.18,NNW,338,1.8,1.8,64,0.00,,,0.00,WUHU216HW,2013-03-27 10:04:00,
2013-03-27 06:29:00,49.3,37.3,30.19,NNE,23,5.6,5.6,63,0.00,,,0.00,WUHU216HW,2013-03-27 10:29:00,
2013-03-27 06:34:00,49.3,37.3,30.19,NNE,23,5.6,5.6,63,0.00,,,0.00,WUHU216HW,2013-03-27 10:34:00,
2013-03-27 06:59:00,48.6,36.5,30.20,North,0,4.0,4.0,63,0.00,,,0.00,WUHU216HW,2013-03-27 10:59:00,
2013-03-27 07:04:00,48.6,36.5,30.20,North,0,4.0,4.0,63,0.00,,,0.00,WUHU216HW,2013-03-27 11:04:00,
2013-03-27 07:29:00,47.9,35.9,30.22,NE,45,1.6,1.6,63,0.00,,,0.00,WUHU216HW,2013-03-27 11:29:00,
2013-03-27 07:34:00,47.9,35.9,30.22,NE,45,1.6,1.6,63,0.00,,,0.00,WUHU216HW,2013-03-27 11:34:00,
2013-03-27 07:59:00,47.9,36.3,30.22,NE,45,3.4,3.4,64,0.00,,,0.00,WUHU216HW,2013-03-27 11:59:00,
2013-03-27 08:04:00,47.9,36.3,30.22,NE,45,3.4,3.4,64,0.00,,,0.00,WUHU216HW,2013-03-27 12:04:00,
2013-03-27 08:29:00,48.4,36.4,30.23,NNE,23,2.7,2.7,63,0.00,,,0.00,WUHU216HW,2013-03-27 12:29:00,
2013-03-27 08:34:00,48.4,36.4,30.23,NNE,23,2.7,2.7,63,0.00,,,0.00,WUHU216HW,2013-03-27 12:34:00,
2013-03-27 08:59:00,49.3,36.8,30.24,North,0,4.0,4.0,62,0.00,,,0.00,WUHU216HW,2013-03-27 12:59:00,
2013-03-27 09:04:00,49.3,36.8,30.24,North,0,4.0,4.0,62,0.00,,,0.00,WUHU216HW,2013-03-27 13:04:00,
2013-03-27 09:29:00,51.1,36.8,30.25,North,0,3.6,3.6,58,0.00,,,0.00,WUHU216HW,2013-03-27 13:29:00,
2013-03-27 09:34:00,51.1,36.8,30.25,North,0,3.6,3.6,58,0.00,,,0.00,WUHU216HW,2013-03-27 13:34:00,
2013-03-27 09:59:00,52.4,34.7,30.25,NNE,23,5.1,5.1,51,0.00,,,0.00,WUHU216HW,2013-03-27 13:59:00,
2013-03-27 10:04:00,52.4,34.7,30.25,NNE,23,5.1,5.1,51,0.00,,,0.00,WUHU216HW,2013-03-27 14:04:00,
2013-03-27 10:29:00,54.2,35.4,30.26,ENE,68,5.1,5.1,49,0.00,,,0.00,WUHU216HW,2013-03-27 14:29:00,
2013-03-27 10:34:00,54.2,35.4,30.26,ENE,68,5.1,5.1,49,0.00,,,0.00,WUHU216HW,2013-03-27 14:34:00,
2013-03-27 10:59:00,56.3,37.5,30.26,North,0,6.3,6.3,49,0.00,,,0.00,WUHU216HW,2013-03-27 14:59:00,
2013-03-27 11:04:00,56.3,37.5,30.26,North,0,6.3,6.3,49,0.00,,,0.00,WUHU216HW,2013-03-27 15:04:00,
2013-03-27 11:30:00,58.0,37.8,30.26,NE,45,4.7,4.7,47,0.00,,,0.00,WUHU216HW,2013-03-27 15:30:00,
2013-03-27 11:35:00,58.0,37.8,30.26,NE,45,4.7,4.7,47,0.00,,,0.00,WUHU216HW,2013-03-27 15:35:00,
2013-03-27 11:59:00,59.9,39.6,30.25,NNE,23,1.6,1.6,47,0.00,,,0.00,WUHU216HW,2013-03-27 15:59:00,
2013-03-27 12:05:00,59.9,39.6,30.25,NNE,23,1.6,1.6,47,0.00,,,0.00,WUHU216HW,2013-03-27 16:05:00,
2013-03-27 12:29:00,61.0,39.4,30.24,NNE,23,6.3,6.3,45,0.00,,,0.00,WUHU216HW,2013-03-27 16:29:00,
2013-03-27 12:34:00,61.0,39.4,30.24,NNE,23,6.3,6.3,45,0.00,,,0.00,WUHU216HW,2013-03-27 16:34:00,
2013-03-27 12:59:00,61.6,37.6,30.22,East,90,2.5,2.5,41,0.00,,,0.00,WUHU216HW,2013-03-27 16:59:00,
2013-03-27 13:04:00,61.6,37.6,30.22,East,90,2.5,2.5,41,0.00,,,0.00,WUHU216HW,2013-03-27 17:04:00,
2013-03-27 13:29:00,63.0,39.4,30.22,NE,45,5.1,5.1,42,0.00,,,0.00,WUHU216HW,2013-03-27 17:29:00,
2013-03-27 13:34:00,63.0,39.4,30.22,NE,45,5.1,5.1,42,0.00,,,0.00,WUHU216HW,2013-03-27 17:34:00,
2013-03-27 13:59:00,64.6,42.7,30.21,WSW,248,9.4,9.4,45,0.00,,,0.00,WUHU216HW,2013-03-27 17:59:00,
2013-03-27 14:04:00,64.6,42.7,30.21,WSW,248,9.4,9.4,45,0.00,,,0.00,WUHU216HW,2013-03-27 18:04:00,
2013-03-27 14:29:00,63.7,41.9,30.20,NW,315,1.6,1.6,45,0.00,,,0.00,WUHU216HW,2013-03-27 18:29:00,
2013-03-27 14:34:00,63.7,41.9,30.20,NW,315,1.6,1.6,45,0.00,,,0.00,WUHU216HW,2013-03-27 18:34:00,
2013-03-27 14:59:00,64.1,42.8,30.20,West,270,5.4,5.4,46,0.00,,,0.00,WUHU216HW,2013-03-27 18:59:00,
2013-03-27 15:04:00,64.1,42.8,30.20,West,270,5.4,5.4,46,0.00,,,0.00,WUHU216HW,2013-03-27 19:04:00,
2013-03-27 15:29:00,64.4,43.7,30.18,NW,315,3.4,3.4,47,0.00,,,0.00,WUHU216HW,2013-03-27 19:29:00,
2013-03-27 15:34:00,64.4,43.7,30.18,NW,315,3.4,3.4,47,0.00,,,0.00,WUHU216HW,2013-03-27 19:34:00,
2013-03-27 15:59:00,64.1,43.9,30.18,NE,45,1.8,1.8,48,0.00,,,0.00,WUHU216HW,2013-03-27 19:59:00,
2013-03-27 16:04:00,64.1,43.9,30.18,NE,45,1.8,1.8,48,0.00,,,0.00,WUHU216HW,2013-03-27 20:04:00,
2013-03-27 16:29:00,64.1,45.0,30.17,NNW,338,1.6,1.6,50,0.00,,,0.00,WUHU216HW,2013-03-27 20:29:00,
2013-03-27 16:34:00,64.1,45.0,30.17,NNW,338,1.6,1.6,50,0.00,,,0.00,WUHU216HW,2013-03-27 20:34:00,
2013-03-27 16:59:00,63.0,45.6,30.17,WSW,248,7.4,7.4,53,0.00,,,0.00,WUHU216HW,2013-03-27 20:59:00,
2013-03-27 17:04:00,63.0,45.6,30.17,WSW,248,7.4,7.4,53,0.00,,,0.00,WUHU216HW,2013-03-27 21:04:00,
2013-03-27 17:29:00,62.5,46.0,30.18,North,0,4.7,4.7,55,0.00,,,0.00,WUHU216HW,2013-03-27 21:29:00,
2013-03-27 17:34:00,62.5,46.0,30.18,North,0,4.7,4.7,55,0.00,,,0.00,WUHU216HW,2013-03-27 21:34:00,
2013-03-27 17:59:00,62.3,45.8,30.18,West,270,8.1,8.1,55,0.00,,,0.00,WUHU216HW,2013-03-27 21:59:00,
2013-03-27 18:04:00,62.3,45.8,30.18,West,270,8.1,8.1,55,0.00,,,0.00,WUHU216HW,2013-03-27 22:04:00,
2013-03-27 18:29:00,61.6,46.2,30.18,NW,315,6.3,6.3,57,0.00,,,0.00,WUHU216HW,2013-03-27 22:29:00,
2013-03-27 18:34:00,61.6,46.2,30.18,NW,315,6.3,6.3,57,0.00,,,0.00,WUHU216HW,2013-03-27 22:34:00,
2013-03-27 18:59:00,61.0,47.2,30.19,NW,315,2.9,2.9,60,0.00,,,0.00,WUHU216HW,2013-03-27 22:59:00,
2013-03-27 19:04:00,61.0,47.2,30.19,NW,315,2.9,2.9,60,0.00,,,0.00,WUHU216HW,2013-03-27 23:04:00,
2013-03-27 19:31:00,60.5,46.6,30.19,NNW,338,2.2,2.2,60,0.00,,,0.00,WUHU216HW,2013-03-27 23:31:00,
2013-03-27 19:36:00,60.5,46.6,30.19,NNW,338,2.2,2.2,60,0.00,,,0.00,WUHU216HW,2013-03-27 23:36:00,
2013-03-27 19:59:00,60.1,47.1,30.19,NNW,338,4.0,4.0,62,0.00,,,0.00,WUHU216HW,2013-03-27 23:59:00,
2013-03-27 20:04:00,60.1,47.1,30.19,NNW,338,4.0,4.0,62,0.00,,,0.00,WUHU216HW,2013-03-28 00:04:00,
2013-03-27 20:29:00,59.6,47.0,30.20,NNE,23,2.5,2.5,63,0.00,,,0.00,WUHU216HW,2013-03-28 00:29:00,
2013-03-27 20:34:00,59.6,47.0,30.20,NNE,23,2.5,2.5,63,0.00,,,0.00,WUHU216HW,2013-03-28 00:34:00,
2013-03-27 20:59:00,59.4,47.2,30.19,NW,315,4.5,4.5,64,0.00,,,0.00,WUHU216HW,2013-03-28 00:59:00,
2013-03-27 21:04:00,59.4,47.2,30.19,NW,315,4.5,4.5,64,0.00,,,0.00,WUHU216HW,2013-03-28 01:04:00,
2013-03-27 21:29:00,59.2,47.0,30.20,NNW,338,1.1,1.1,64,0.00,,,0.00,WUHU216HW,2013-03-28 01:29:00,
2013-03-27 21:35:00,59.2,47.0,30.20,NNW,338,1.1,1.1,64,0.00,,,0.00,WUHU216HW,2013-03-28 01:35:00,
2013-03-27 21:59:00,58.7,47.4,30.20,NNW,338,2.2,2.2,66,0.00,,,0.00,WUHU216HW,2013-03-28 01:59:00,
2013-03-27 22:04:00,58.7,47.4,30.20,NNW,338,2.2,2.2,66,0.00,,,0.00,WUHU216HW,2013-03-28 02:04:00,
2013-03-27 22:29:00,58.3,46.2,30.21,NNW,338,1.3,1.3,64,0.00,,,0.00,WUHU216HW,2013-03-28 02:29:00,
2013-03-27 22:34:00,58.3,46.2,30.21,NNW,338,1.3,1.3,64,0.00,,,0.00,WUHU216HW,2013-03-28 02:34:00,
2013-03-27 22:59:00,58.0,45.8,30.21,NNW,338,1.8,1.8,64,0.00,,,0.00,WUHU216HW,2013-03-28 02:59:00,
2013-03-27 23:04:00,58.0,45.8,30.21,NNW,338,1.8,1.8,64,0.00,,,0.00,WUHU216HW,2013-03-28 03:04:00,
2013-03-27 23:29:00,56.5,44.0,30.22,NE,45,2.0,2.0,63,0.00,,,0.00,WUHU216HW,2013-03-28 03:29:00,
2013-03-27 23:34:00,56.5,44.0,30.22,NE,45,2.0,2.0,63,0.00,,,0.00,WUHU216HW,2013-03-28 03:34:00,
2013-03-27 23:59:00,55.8,43.4,30.21,NNW,338,1.3,1.3,63,0.00,,,0.00,WUHU216HW,2013-03-28 03:59:00,